Powrót do katalogu

STARLINK-36481

AktywnyŁącznośćVLEO
NORAD 67307·PAYLOAD·🇺🇸 United States

Wystrzelony Jan 4, 2026 z Cape Canaveral Space Force Station

Loading…

Następne Przeloty (najbliższe 24 godziny)

TLE

ŚwieżeSource: CelesTrak SupGP

Epoka: Sep 15, 2026, 03:15 UTC

1 67307C 26002C   26258.13590278  .00047347  00000+0  17146-2 0  2584
2 67307  43.0023 335.4786 0001613 262.6031   5.7456 15.27561150    15

Śledź STARLINK-36481 w czasie rzeczywistym z AllMySat

Download on the App Store